| time (UTC) | temp C | wind direction | speed KPH | gust KPH | rain 1hr cm | rain 24hr cm | rain mn cm | humidity % | barometer mb |
| 20260505195942 | 30 | 163 | 8.0 | 11.3 | 0.00 | 0.00 | 0.00 | 62 | 1001.3 |
| 20260505195439 | 30 | 263 | 4.8 | 8.0 | 0.00 | 0.00 | 0.00 | 62 | 1001.5 |
| 20260505194937 | 30 | 202 | 11.3 | 14.5 | 0.00 | 0.00 | 0.00 | 62 | 1001.7 |
| 20260505194434 | 30 | 194 | 8.0 | 11.3 | 0.00 | 0.00 | 0.00 | 62 | 1001.4 |
| 20260505193934 | 29 | 196 | 4.8 | 8.0 | 0.00 | 0.00 | 0.00 | 64 | 1001.7 |
| 20260505193432 | 29 | 203 | 6.4 | 9.7 | 0.00 | 0.00 | 0.00 | 63 | 1001.7 |
| 20260505192929 | 30 | 231 | 14.5 | 16.1 | 0.00 | 0.00 | 0.00 | 63 | 1001.7 |
| 20260505192428 | 30 | 225 | 6.4 | 9.7 | 0.00 | 0.00 | 0.00 | 63 | 1001.8 |
| 20260505191925 | 30 | 172 | 8.0 | 11.3 | 0.00 | 0.00 | 0.00 | 64 | 1001.7 |
| 20260505191424 | 29 | 309 | 6.4 | 11.3 | 0.00 | 0.00 | 0.00 | 65 | 1001.6 |
| 20260505190920 | 29 | 241 | 6.4 | 9.7 | 0.00 | 0.00 | 0.00 | 66 | 1001.7 |
| 20260505190415 | 28 | 197 | 11.3 | 14.5 | 0.00 | 0.00 | 0.00 | 66 | 1001.6 |
| 20260505185910 | 28 | 216 | 4.8 | 8.0 | 0.00 | 0.00 | 0.00 | 66 | 1001.8 |
| 20260505185408 | 28 | 186 | 11.3 | 14.5 | 0.00 | 0.00 | 0.00 | 67 | 1001.4 |
| 20260505184904 | 28 | 220 | 6.4 | 8.0 | 0.00 | 0.00 | 0.00 | 68 | 1001.9 |
| 20260505184401 | 28 | 184 | 6.4 | 9.7 | 0.00 | 0.00 | 0.00 | 68 | 1001.6 |
| 20260505183858 | 28 | 222 | 9.7 | 12.9 | 0.00 | 0.00 | 0.00 | 68 | 1001.8 |
| 20260505183354 | 28 | 232 | 8.0 | 11.3 | 0.00 | 0.00 | 0.00 | 67 | 1001.8 |
| 20260505182851 | 28 | 182 | 11.3 | 16.1 | 0.00 | 0.00 | 0.00 | 68 | 1001.8 |
| 20260505182348 | 28 | 204 | 8.0 | 11.3 | 0.00 | 0.00 | 0.00 | 68 | 1001.7 |
| 20260505181845 | 28 | 200 | 9.7 | 12.9 | 0.00 | 0.00 | 0.00 | 68 | 1001.7 |
| 20260505181342 | 28 | 238 | 8.0 | 9.7 | 0.00 | 0.00 | 0.00 | 67 | 1002.0 |
| 20260505180839 | 28 | 230 | 4.8 | 4.8 | 0.00 | 0.00 | 0.00 | 68 | 1001.8 |
| 20260505180335 | 27 | 167 | 4.8 | 8.0 | 0.00 | 0.00 | 0.00 | 70 | 1001.9 |
| 20260505175832 | 27 | 182 | 12.9 | 16.1 | 0.00 | 0.00 | 0.00 | 69 | 1001.8 |
| 20260505175328 | 27 | 202 | 8.0 | 11.3 | 0.00 | 0.00 | 0.00 | 69 | 1001.7 |
| 20260505174825 | 27 | 209 | 6.4 | 8.0 | 0.00 | 0.00 | 0.00 | 70 | 1001.8 |
| 20260505174322 | 27 | 226 | 11.3 | 14.5 | 0.00 | 0.00 | 0.00 | 71 | 1002.0 |
| 20260505173818 | 27 | 193 | 9.7 | 14.5 | 0.00 | 0.00 | 0.00 | 71 | 1001.9 |
| 20260505173315 | 27 | 211 | 17.7 | 20.9 | 0.00 | 0.00 | 0.00 | 70 | 1002.0 |
| 20260505172812 | 26 | 244 | 6.4 | 8.0 | 0.00 | 0.00 | 0.00 | 72 | 1001.8 |
| 20260505172310 | 26 | 215 | 16.1 | 17.7 | 0.00 | 0.00 | 0.00 | 71 | 1002.0 |
| 20260505171804 | 27 | 270 | 11.3 | 12.9 | 0.00 | 0.00 | 0.00 | 71 | 1002.1 |
| 20260505171301 | 26 | 189 | 16.1 | 22.5 | 0.00 | 0.00 | 0.00 | 73 | 1002.2 |
| 20260505170757 | 26 | 202 | 8.0 | 12.9 | 0.00 | 0.00 | 0.00 | 73 | 1002.0 |
| 20260505170255 | 26 | 238 | 8.0 | 11.3 | 0.00 | 0.00 | 0.00 | 73 | 1001.9 |
| 20260505165749 | 26 | 189 | 6.4 | 11.3 | 0.00 | 0.00 | 0.00 | 72 | 1002.2 |
| 20260505165246 | 26 | 161 | 6.4 | 8.0 | 0.00 | 0.00 | 0.00 | 73 | 1001.9 |
| 20260505164741 | 26 | 216 | 6.4 | 9.7 | 0.00 | 0.00 | 0.00 | 73 | 1001.9 |
| 20260505164239 | 26 | 175 | 8.0 | 9.7 | 0.00 | 0.00 | 0.00 | 73 | 1001.9 |
| 20260505163737 | 25 | 162 | 9.7 | 12.9 | 0.00 | 0.00 | 0.00 | 74 | 1002.0 |
| 20260505163235 | 26 | 215 | 14.5 | 22.5 | 0.00 | 0.00 | 0.00 | 74 | 1001.8 |
| 20260505162732 | 25 | 175 | 9.7 | 12.9 | 0.00 | 0.00 | 0.00 | 74 | 1001.9 |
| 20260505162229 | 25 | 200 | 16.1 | 20.9 | 0.00 | 0.00 | 0.00 | 74 | 1001.7 |
| 20260505161726 | 25 | 136 | 3.2 | 4.8 | 0.00 | 0.00 | 0.00 | 74 | 1001.9 |
| 20260505161224 | 25 | 194 | 6.4 | 11.3 | 0.00 | 0.00 | 0.00 | 75 | 1001.9 |
| 20260505160721 | 25 | 200 | 19.3 | 27.4 | 0.00 | 0.00 | 0.00 | 75 | 1001.6 |
| 20260505160218 | 25 | 223 | 8.0 | 9.7 | 0.00 | 0.00 | 0.00 | 75 | 1001.8 |
| 20260505153157 | 25 | 228 | 14.5 | 16.1 | 0.00 | 0.00 | 0.00 | 77 | 1001.4 |
| 20260505152654 | 25 | 202 | 14.5 | 22.5 | 0.00 | 0.00 | 0.00 | 76 | 1001.6 |
| 20260505152150 | 24 | 226 | 14.5 | 22.5 | 0.00 | 0.00 | 0.00 | 78 | 1001.6 |
| 20260505151645 | 24 | 197 | 17.7 | 24.1 | 0.00 | 0.00 | 0.00 | 77 | 1001.6 |
| 20260505151143 | 24 | 229 | 9.7 | 14.5 | 0.00 | 0.00 | 0.00 | 78 | 1001.7 |
| 20260505150639 | 24 | 193 | 9.7 | 12.9 | 0.00 | 0.00 | 0.00 | 79 | 1001.6 |
| 20260505150136 | 24 | 190 | 9.7 | 12.9 | 0.00 | 0.00 | 0.00 | 79 | 1001.6 |
| 20260505140605 | 22 | 198 | 8.0 | 9.7 | 0.00 | 0.00 | 0.00 | 83 | 1001.3 |
| 20260505125018 | 22 | 191 | 6.4 | 9.7 | 0.00 | 0.00 | 0.00 | 85 | 1000.6 |
| 20260505124515 | 22 | 238 | 8.0 | 11.3 | 0.00 | 0.00 | 0.00 | 85 | 1000.5 |
| 20260505124011 | 22 | 195 | 11.3 | 11.3 | 0.00 | 0.00 | 0.00 | 85 | 1000.6 |
| 20260505123508 | 22 | 205 | 3.2 | 4.8 | 0.00 | 0.00 | 0.00 | 85 | 1000.6 |
| 20260505123004 | 21 | 209 | 8.0 | 12.9 | 0.00 | 0.00 | 0.00 | 85 | 1000.3 |
| 20260505122501 | 21 | 189 | 4.8 | 4.8 | 0.00 | 0.00 | 0.00 | 85 | 1000.2 |
| 20260505121958 | 22 | 251 | 9.7 | 14.5 | 0.00 | 0.00 | 0.00 | 85 | 1000.0 |
| 20260505121454 | 22 | 197 | 9.7 | 12.9 | 0.00 | 0.00 | 0.00 | 85 | 1000.2 |
| 20260505120950 | 22 | 148 | 4.8 | 4.8 | 0.00 | 0.00 | 0.00 | 85 | 1000.2 |
| 20260505120447 | 22 | 158 | 6.4 | 9.7 | 0.00 | 0.00 | 0.00 | 85 | 1000.1 |
| 20260505115946 | 22 | 183 | 9.7 | 11.3 | 0.00 | 0.00 | 0.00 | 85 | 999.8 |
| 20260505115443 | 22 | 220 | 3.2 | 3.2 | 0.00 | 0.00 | 0.00 | 84 | 1000.2 |
| 20260505114941 | 22 | 184 | 14.5 | 24.1 | 0.00 | 0.00 | 0.00 | 84 | 999.7 |
| 20260505114432 | 22 | 184 | 12.9 | 16.1 | 0.00 | 0.00 | 0.00 | 85 | 999.9 |
| 20260505113928 | 22 | 193 | 8.0 | 12.9 | 0.00 | 0.00 | 0.00 | 85 | 1000.0 |
| 20260505113425 | 22 | 212 | 11.3 | 14.5 | 0.00 | 0.00 | 0.00 | 85 | 999.8 |
| 20260505112921 | 22 | 238 | 12.9 | 14.5 | 0.00 | 0.00 | 0.00 | 84 | 1000.2 |
| 20260505112419 | 22 | 219 | 14.5 | 20.9 | 0.00 | 0.00 | 0.00 | 84 | 999.7 |
| 20260505111914 | 22 | 215 | 14.5 | 17.7 | 0.00 | 0.00 | 0.00 | 84 | 999.8 |
| 20260505111415 | 22 | 219 | 12.9 | 24.1 | 0.00 | 0.00 | 0.00 | 83 | 999.7 |
| 20260505110911 | 22 | 244 | 8.0 | 11.3 | 0.00 | 0.00 | 0.00 | 84 | 1000.2 |
| 20260505110408 | 22 | 220 | 8.0 | 9.7 | 0.00 | 0.00 | 0.00 | 84 | 1000.0 |
| 20260505101838 | 21 | 150 | 4.8 | 8.0 | 0.00 | 0.00 | 0.00 | 85 | 1000.0 |
| 20260505101334 | 21 | 269 | 9.7 | 12.9 | 0.00 | 0.00 | 0.00 | 85 | 1000.0 |
| 20260505100830 | 21 | 240 | 4.8 | 8.0 | 0.00 | 0.00 | 0.00 | 85 | 999.6 |
| 20260505100327 | 21 | 169 | 8.0 | 12.9 | 0.00 | 0.00 | 0.00 | 85 | 999.8 |
| 20260505095822 | 21 | 222 | 8.0 | 12.9 | 0.00 | 0.00 | 0.00 | 85 | 999.9 |
| 20260505095320 | 21 | 236 | 6.4 | 9.7 | 0.00 | 0.00 | 0.00 | 85 | 999.6 |
| 20260505094816 | 21 | 191 | 11.3 | 14.5 | 0.00 | 0.00 | 0.00 | 85 | 1000.3 |
| 20260505094313 | 21 | 169 | 9.7 | 11.3 | 0.00 | 0.00 | 0.00 | 85 | 1000.2 |
| 20260505093808 | 21 | 237 | 4.8 | 4.8 | 0.00 | 0.00 | 0.00 | 85 | 1000.3 |
| 20260505093307 | 21 | 196 | 6.4 | 11.3 | 0.00 | 0.00 | 0.00 | 85 | 1000.3 |
| 20260505092803 | 21 | 203 | 9.7 | 12.9 | 0.00 | 0.00 | 0.00 | 85 | 1000.1 |
| 20260505092304 | 21 | 210 | 9.7 | 12.9 | 0.00 | 0.00 | 0.00 | 85 | 1000.2 |
| 20260505091758 | 21 | 178 | 8.0 | 11.3 | 0.00 | 0.00 | 0.00 | 85 | 1000.4 |
| 20260505091256 | 21 | 195 | 6.4 | 11.3 | 0.00 | 0.00 | 0.00 | 85 | 1000.5 |
| 20260505090754 | 21 | 179 | 16.1 | 22.5 | 0.00 | 0.00 | 0.00 | 85 | 1000.3 |
| 20260505090252 | 21 | 220 | 8.0 | 12.9 | 0.00 | 0.00 | 0.00 | 85 | 1000.3 |
| 20260505085749 | 21 | 198 | 11.3 | 14.5 | 0.00 | 0.00 | 0.00 | 85 | 1000.3 |
| 20260505085247 | 21 | 201 | 8.0 | 9.7 | 0.00 | 0.00 | 0.00 | 86 | 1000.1 |
| 20260505084744 | 21 | 212 | 9.7 | 12.9 | 0.00 | 0.00 | 0.00 | 86 | 1000.3 |
| 20260505084243 | 21 | 185 | 6.4 | 11.3 | 0.00 | 0.00 | 0.00 | 86 | 1000.2 |
| 20260505083739 | 21 | 213 | 9.7 | 11.3 | 0.00 | 0.00 | 0.00 | 86 | 1000.2 |
| 20260505083236 | 21 | 212 | 8.0 | 16.1 | 0.00 | 0.00 | 0.00 | 85 | 1000.5 |
| 20260505082732 | 21 | 199 | 9.7 | 12.9 | 0.00 | 0.00 | 0.00 | 85 | 1000.5 |
| 20260505082230 | 21 | 220 | 14.5 | 17.7 | 0.00 | 0.00 | 0.00 | 85 | 1000.6 |
| 20260505081725 | 21 | 188 | 12.9 | 17.7 | 0.00 | 0.00 | 0.00 | 85 | 1000.5 |
| 20260505081223 | 21 | 207 | 11.3 | 14.5 | 0.00 | 0.00 | 0.00 | 85 | 1000.5 |
| 20260505080720 | 21 | 104 | 0.0 | 1.6 | 0.00 | 0.00 | 0.00 | 84 | 1000.3 |
| 20260505080215 | 21 | 215 | 14.5 | 20.9 | 0.00 | 0.00 | 0.00 | 84 | 1000.6 |
| 20260505075711 | 21 | 205 | 4.8 | 8.0 | 0.00 | 0.00 | 0.00 | 84 | 1000.6 |
| 20260505075209 | 21 | 175 | 17.7 | 22.5 | 0.00 | 0.00 | 0.00 | 83 | 1000.5 |
| 20260505074706 | 21 | 207 | 4.8 | 8.0 | 0.00 | 0.00 | 0.00 | 83 | 1000.5 |
| 20260505074203 | 22 | 210 | 11.3 | 14.5 | 0.00 | 0.00 | 0.00 | 83 | 1000.6 |
| 20260505073700 | 22 | 187 | 11.3 | 12.9 | 0.00 | 0.00 | 0.00 | 83 | 1000.7 |
| 20260505073158 | 22 | 261 | 4.8 | 11.3 | 0.00 | 0.00 | 0.00 | 82 | 1000.7 |
| 20260505072653 | 22 | 188 | 6.4 | 9.7 | 0.00 | 0.00 | 0.00 | 82 | 1000.9 |
| 20260505072150 | 22 | 233 | 8.0 | 11.3 | 0.00 | 0.00 | 0.00 | 82 | 1001.1 |
| 20260505071646 | 22 | 187 | 8.0 | 9.7 | 0.00 | 0.00 | 0.00 | 81 | 1001.2 |
| 20260505071144 | 22 | 186 | 11.3 | 17.7 | 0.00 | 0.00 | 0.00 | 81 | 1001.3 |
| 20260505070641 | 22 | 203 | 9.7 | 11.3 | 0.00 | 0.00 | 0.00 | 81 | 1001.4 |
| 20260505070137 | 22 | 208 | 6.4 | 9.7 | 0.00 | 0.00 | 0.00 | 80 | 1001.4 |
| 20260505065633 | 22 | 202 | 8.0 | 11.3 | 0.00 | 0.00 | 0.00 | 80 | 1001.3 |
| 20260505065130 | 22 | 190 | 4.8 | 9.7 | 0.00 | 0.00 | 0.00 | 80 | 1001.4 |
| 20260505064627 | 22 | 195 | 12.9 | 14.5 | 0.00 | 0.00 | 0.00 | 80 | 1001.5 |
| 20260505064125 | 22 | 180 | 11.3 | 12.9 | 0.00 | 0.00 | 0.00 | 79 | 1001.6 |
| 20260505063622 | 22 | 191 | 11.3 | 14.5 | 0.00 | 0.00 | 0.00 | 79 | 1001.6 |
| 20260505063118 | 22 | 189 | 6.4 | 11.3 | 0.00 | 0.00 | 0.00 | 79 | 1001.7 |
| 20260505062615 | 22 | 196 | 6.4 | 9.7 | 0.00 | 0.00 | 0.00 | 79 | 1001.7 |
| 20260505062112 | 22 | 214 | 6.4 | 9.7 | 0.00 | 0.00 | 0.00 | 79 | 1001.7 |
| 20260505061609 | 22 | 151 | 8.0 | 12.9 | 0.00 | 0.00 | 0.00 | 79 | 1001.9 |
| 20260505061107 | 22 | 203 | 9.7 | 14.5 | 0.00 | 0.00 | 0.00 | 79 | 1001.9 |
| 20260505060604 | 22 | 117 | 6.4 | 8.0 | 0.00 | 0.00 | 0.00 | 79 | 1001.7 |
| 20260505055556 | 22 | 200 | 8.0 | 11.3 | 0.00 | 0.00 | 0.00 | 78 | 1001.8 |
| 20260505055053 | 22 | 128 | 3.2 | 4.8 | 0.00 | 0.00 | 0.00 | 78 | 1001.7 |
| 20260505054550 | 22 | 214 | 8.0 | 11.3 | 0.00 | 0.00 | 0.00 | 78 | 1002.0 |
| 20260505054049 | 22 | 203 | 4.8 | 8.0 | 0.00 | 0.00 | 0.00 | 77 | 1002.1 |
| 20260505053545 | 22 | 120 | 3.2 | 4.8 | 0.00 | 0.00 | 0.00 | 77 | 1001.9 |
| 20260505053042 | 22 | 205 | 6.4 | 12.9 | 0.00 | 0.00 | 0.00 | 77 | 1002.1 |
| 20260505052539 | 22 | 195 | 8.0 | 11.3 | 0.00 | 0.00 | 0.00 | 77 | 1002.1 |
| 20260505052037 | 22 | 193 | 9.7 | 16.1 | 0.00 | 0.00 | 0.00 | 76 | 1002.1 |
| 20260505051533 | 22 | 232 | 6.4 | 11.3 | 0.00 | 0.00 | 0.00 | 76 | 1002.2 |
| 20260505051031 | 22 | 206 | 14.5 | 17.7 | 0.00 | 0.00 | 0.00 | 76 | 1002.2 |
| 20260505050529 | 22 | 161 | 8.0 | 11.3 | 0.00 | 0.00 | 0.00 | 76 | 1002.0 |
| 20260505041457 | 23 | 173 | 6.4 | 11.3 | 0.00 | 0.00 | 0.00 | 73 | 1002.7 |
| 20260505040954 | 23 | 186 | 4.8 | 9.7 | 0.00 | 0.00 | 0.00 | 73 | 1002.7 |
| 20260505040451 | 23 | 177 | 4.8 | 8.0 | 0.00 | 0.00 | 0.00 | 73 | 1002.8 |
| 20260505035948 | 23 | 222 | 6.4 | 11.3 | 0.00 | 0.00 | 0.00 | 73 | 1002.7 |
| 20260505035444 | 23 | 185 | 3.2 | 3.2 | 0.00 | 0.00 | 0.00 | 73 | 1002.8 |
| 20260505034942 | 23 | 163 | 3.2 | 3.2 | 0.00 | 0.00 | 0.00 | 72 | 1002.7 |
| 20260505034438 | 23 | 165 | 3.2 | 4.8 | 0.00 | 0.00 | 0.00 | 72 | 1002.8 |
| 20260505033935 | 23 | 248 | 9.7 | 11.3 | 0.00 | 0.00 | 0.00 | 72 | 1002.9 |
| 20260505033432 | 23 | 221 | 4.8 | 9.7 | 0.00 | 0.00 | 0.00 | 71 | 1002.8 |
| 20260505032930 | 23 | 204 | 12.9 | 16.1 | 0.00 | 0.00 | 0.00 | 71 | 1002.9 |
| 20260505032427 | 23 | 193 | 4.8 | 4.8 | 0.00 | 0.00 | 0.00 | 71 | 1003.0 |
| 20260505031923 | 23 | 110 | 11.3 | 16.1 | 0.00 | 0.00 | 0.00 | 71 | 1002.9 |
| 20260505031420 | 23 | 170 | 4.8 | 4.8 | 0.00 | 0.00 | 0.00 | 71 | 1003.0 |
| 20260505030917 | 23 | 191 | 8.0 | 12.9 | 0.00 | 0.00 | 0.00 | 71 | 1002.8 |
| 20260505030413 | 23 | 172 | 3.2 | 8.0 | 0.00 | 0.00 | 0.00 | 71 | 1002.9 |
| 20260505025908 | 23 | 216 | 9.7 | 12.9 | 0.00 | 0.00 | 0.00 | 71 | 1003.2 |
| 20260505025406 | 23 | 170 | 4.8 | 4.8 | 0.00 | 0.00 | 0.00 | 70 | 1003.0 |
| 20260505024905 | 23 | 224 | 6.4 | 11.3 | 0.00 | 0.00 | 0.00 | 70 | 1002.9 |
| 20260505024402 | 23 | 216 | 4.8 | 8.0 | 0.00 | 0.00 | 0.00 | 70 | 1002.8 |
| 20260505023859 | 23 | 151 | 3.2 | 4.8 | 0.00 | 0.00 | 0.00 | 70 | 1002.8 |
| 20260505023356 | 23 | 220 | 4.8 | 8.0 | 0.00 | 0.00 | 0.00 | 70 | 1002.4 |
| 20260505022853 | 23 | 207 | 4.8 | 8.0 | 0.00 | 0.00 | 0.00 | 70 | 1002.6 |
| 20260505022350 | 23 | 123 | 4.8 | 4.8 | 0.00 | 0.00 | 0.00 | 70 | 1002.6 |
| 20260505021848 | 23 | 196 | 9.7 | 12.9 | 0.00 | 0.00 | 0.00 | 70 | 1002.7 |
| 20260505021344 | 23 | 179 | 8.0 | 9.7 | 0.00 | 0.00 | 0.00 | 69 | 1002.4 |
| 20260505020840 | 23 | 177 | 3.2 | 3.2 | 0.00 | 0.00 | 0.00 | 69 | 1002.4 |
| 20260505020335 | 23 | 133 | 4.8 | 4.8 | 0.00 | 0.00 | 0.00 | 69 | 1002.4 |
| 20260505015832 | 23 | 192 | 6.4 | 9.7 | 0.00 | 0.00 | 0.00 | 69 | 1002.3 |
| 20260505015329 | 23 | 95 | 3.2 | 3.2 | 0.00 | 0.00 | 0.00 | 69 | 1002.4 |
| 20260505014827 | 23 | 200 | 1.6 | 3.2 | 0.00 | 0.00 | 0.00 | 68 | 1002.0 |
| 20260505014324 | 24 | 187 | 12.9 | 17.7 | 0.00 | 0.00 | 0.00 | 68 | 1002.2 |
| 20260505013820 | 24 | 279 | 6.4 | 12.9 | 0.00 | 0.00 | 0.00 | 68 | 1002.4 |
| 20260505013317 | 24 | 183 | 4.8 | 4.8 | 0.00 | 0.00 | 0.00 | 67 | 1002.3 |
| 20260505012816 | 24 | 205 | 4.8 | 8.0 | 0.00 | 0.00 | 0.00 | 67 | 1002.1 |
| 20260505012313 | 24 | 207 | 4.8 | 4.8 | 0.00 | 0.00 | 0.00 | 67 | 1002.2 |
| 20260505011809 | 24 | 234 | 14.5 | 16.1 | 0.00 | 0.00 | 0.00 | 66 | 1002.2 |
| 20260505011306 | 24 | 207 | 4.8 | 4.8 | 0.00 | 0.00 | 0.00 | 66 | 1002.2 |
| 20260505010802 | 25 | 98 | 1.6 | 3.2 | 0.00 | 0.00 | 0.00 | 66 | 1002.1 |
| 20260505010258 | 25 | 163 | 4.8 | 8.0 | 0.00 | 0.00 | 0.00 | 66 | 1002.3 |
| 20260505005754 | 25 | 141 | 6.4 | 11.3 | 0.00 | 0.00 | 0.00 | 65 | 1002.2 |
| 20260505005252 | 25 | 133 | 6.4 | 8.0 | 0.00 | 0.00 | 0.00 | 65 | 1001.8 |
| 20260505004749 | 25 | 199 | 11.3 | 14.5 | 0.00 | 0.00 | 0.00 | 64 | 1001.9 |
| 20260505004245 | 25 | 226 | 11.3 | 22.5 | 0.00 | 0.00 | 0.00 | 64 | 1001.9 |
| 20260505003742 | 25 | 154 | 6.4 | 11.3 | 0.00 | 0.00 | 0.00 | 64 | 1002.0 |
| 20260505003240 | 25 | 202 | 6.4 | 11.3 | 0.00 | 0.00 | 0.00 | 64 | 1002.3 |
| 20260505002736 | 25 | 228 | 3.2 | 8.0 | 0.00 | 0.00 | 0.00 | 64 | 1002.2 |
| 20260505002233 | 25 | 230 | 11.3 | 14.5 | 0.00 | 0.00 | 0.00 | 63 | 1002.2 |
| 20260505001731 | 25 | 183 | 14.5 | 20.9 | 0.00 | 0.00 | 0.00 | 63 | 1002.3 |
| 20260505001228 | 25 | 226 | 4.8 | 4.8 | 0.00 | 0.00 | 0.00 | 62 | 1002.4 |
| 20260505000725 | 25 | 198 | 16.1 | 20.9 | 0.00 | 0.00 | 0.00 | 62 | 1002.1 |
| 20260505000223 | 25 | 215 | 14.5 | 20.9 | 0.00 | 0.00 | 0.00 | 62 | 1002.2 |
| 20260504235719 | 25 | 232 | 19.3 | 24.1 | 0.00 | 0.00 | 0.00 | 62 | 1002.1 |
| 20260504235215 | 25 | 232 | 6.4 | 9.7 | 0.00 | 0.00 | 0.00 | 62 | 1002.3 |
| 20260504234713 | 25 | 168 | 4.8 | 8.0 | 0.00 | 0.00 | 0.00 | 62 | 1002.4 |
| 20260504234210 | 25 | 188 | 11.3 | 14.5 | 0.00 | 0.00 | 0.00 | 61 | 1002.8 |
| 20260504233706 | 25 | 204 | 14.5 | 24.1 | 0.00 | 0.00 | 0.00 | 62 | 1002.4 |
| 20260504233202 | 25 | 184 | 11.3 | 14.5 | 0.00 | 0.00 | 0.00 | 61 | 1002.7 |
| 20260504232700 | 26 | 212 | 4.8 | 8.0 | 0.00 | 0.00 | 0.00 | 61 | 1002.5 |
| 20260504232156 | 26 | 218 | 6.4 | 11.3 | 0.00 | 0.00 | 0.00 | 60 | 1002.6 |
| 20260504231653 | 26 | 78 | 11.3 | 24.1 | 0.00 | 0.00 | 0.00 | 61 | 1002.6 |
| 20260504231149 | 26 | 227 | 4.8 | 4.8 | 0.00 | 0.00 | 0.00 | 61 | 1002.8 |
| 20260504230646 | 26 | 200 | 14.5 | 25.7 | 0.00 | 0.00 | 0.00 | 60 | 1002.7 |
| 20260504230145 | 26 | 195 | 4.8 | 8.0 | 0.00 | 0.00 | 0.00 | 60 | 1002.6 |
| 20260504225643 | 26 | 159 | 6.4 | 9.7 | 0.00 | 0.00 | 0.00 | 59 | 1002.6 |
| 20260504225138 | 27 | 200 | 16.1 | 22.5 | 0.00 | 0.00 | 0.00 | 58 | 1002.8 |
| 20260504224635 | 26 | 184 | 11.3 | 16.1 | 0.00 | 0.00 | 0.00 | 58 | 1002.9 |
| 20260504224132 | 27 | 251 | 4.8 | 11.3 | 0.00 | 0.00 | 0.00 | 58 | 1003.0 |
| 20260504223629 | 27 | 211 | 4.8 | 8.0 | 0.00 | 0.00 | 0.00 | 58 | 1003.0 |
| 20260504223120 | 26 | 230 | 14.5 | 20.9 | 0.00 | 0.00 | 0.00 | 58 | 1002.8 |
| 20260504222617 | 26 | 231 | 4.8 | 8.0 | 0.00 | 0.00 | 0.00 | 58 | 1002.9 |
| 20260504222114 | 27 | 175 | 9.7 | 12.9 | 0.00 | 0.00 | 0.00 | 57 | 1002.7 |
| 20260504221611 | 26 | 214 | 12.9 | 16.1 | 0.00 | 0.00 | 0.00 | 57 | 1002.7 |
| 20260504221108 | 27 | 262 | 9.7 | 17.7 | 0.00 | 0.00 | 0.00 | 57 | 1002.9 |
| 20260504220604 | 26 | 195 | 9.7 | 12.9 | 0.00 | 0.00 | 0.00 | 58 | 1003.0 |
| 20260504215558 | 26 | 185 | 11.3 | 14.5 | 0.00 | 0.00 | 0.00 | 57 | 1003.2 |
| 20260504215056 | 26 | 150 | 9.7 | 16.1 | 0.00 | 0.00 | 0.00 | 57 | 1003.3 |
| 20260504214551 | 27 | 159 | 11.3 | 20.9 | 0.00 | 0.00 | 0.00 | 56 | 1003.3 |
| 20260504214048 | 26 | 195 | 9.7 | 12.9 | 0.00 | 0.00 | 0.00 | 56 | 1003.5 |
| 20260504213544 | 26 | 190 | 14.5 | 17.7 | 0.00 | 0.00 | 0.00 | 57 | 1003.5 |
| 20260504213041 | 26 | 136 | 8.0 | 11.3 | 0.00 | 0.00 | 0.00 | 58 | 1003.3 |
| 20260504212537 | 27 | 222 | 12.9 | 20.9 | 0.00 | 0.00 | 0.00 | 57 | 1003.5 |
| 20260504212035 | 27 | 216 | 12.9 | 17.7 | 0.00 | 0.00 | 0.00 | 56 | 1003.7 |
| 20260504211531 | 27 | 237 | 14.5 | 17.7 | 0.00 | 0.00 | 0.00 | 56 | 1003.8 |
| 20260504211029 | 27 | 153 | 12.9 | 17.7 | 0.00 | 0.00 | 0.00 | 56 | 1004.0 |
| 20260504210526 | 27 | 194 | 11.3 | 14.5 | 0.00 | 0.00 | 0.00 | 55 | 1003.9 |
| 20260504210022 | 27 | 191 | 11.3 | 14.5 | 0.00 | 0.00 | 0.00 | 56 | 1004.3 |
| 20260504205520 | 26 | 185 | 12.9 | 14.5 | 0.00 | 0.00 | 0.00 | 57 | 1004.2 |
| 20260504205018 | 26 | 226 | 3.2 | 3.2 | 0.00 | 0.00 | 0.00 | 57 | 1004.5 |
| 20260504204516 | 26 | 182 | 3.2 | 4.8 | 0.00 | 0.00 | 0.00 | 56 | 1004.4 |
| 20260504204015 | 26 | 184 | 9.7 | 11.3 | 0.00 | 0.00 | 0.00 | 55 | 1004.5 |
| 20260504203512 | 27 | 182 | 12.9 | 24.1 | 0.00 | 0.00 | 0.00 | 55 | 1004.8 |
| 20260504203009 | 27 | 155 | 4.8 | 14.5 | 0.00 | 0.00 | 0.00 | 55 | 1004.6 |
| 20260504202505 | 27 | 246 | 8.0 | 12.9 | 0.00 | 0.00 | 0.00 | 53 | 1004.7 |
| 20260504202001 | 26 | 242 | 9.7 | 11.3 | 0.00 | 0.00 | 0.00 | 55 | 1004.8 |
| 20260504201459 | 27 | 106 | 3.2 | 4.8 | 0.00 | 0.00 | 0.00 | 55 | 1005.0 |
| 20260504200956 | 27 | 219 | 11.3 | 14.5 | 0.00 | 0.00 | 0.00 | 53 | 1005.2 |
| 20260504200453 | 27 | 225 | 6.4 | 9.7 | 0.00 | 0.00 | 0.00 | 53 | 1005.4 |